Location: Unspecified
(0.0000°N, 0.0000°E)
Time: 01:10:43
(UTC+01:00)

Milstar 3 - Visible Passes

Search period start: 08 December 2016 00:00
Search period end: 18 December 2016 00:00
Orbit: 1097 x 5149 km, 28.2° (Epoch: 17 October)

Date Brightness Start Highest point End Pass type
(mag) Time Alt. Az. Time Alt. Az. Time Alt. Az.
08 Dec 6.8 01:33:28 19° NE 01:33:28 19° NE 01:40:50 10° NE visible
08 Dec 6.3 04:07:02 31° NNW 04:17:21 36° N 04:45:05 10° ENE visible
08 Dec 3.7 21:11:37 10° WSW 21:20:00 87° NNW 21:22:28 64° NE visible
09 Dec6.100:35:30NE00:35:30NE23:56:03Wvisible
09 Dec 6.3 03:09:04 33° N 03:09:04 33° N 03:36:12 10° ENE visible
09 Dec 6.4 05:42:38 13° NW 06:11:53 49° NNE 06:36:24 10° E visible
09 Dec 3.6 20:10:40 10° SW 20:18:03 65° SSE 20:24:37 28° ENE visible
09 Dec 5.2 22:54:06 10° W 22:58:12 28° WNW 22:58:12 28° WNW visible
10 Dec 6.5 02:11:07 26° NNE 02:11:07 26° NNE 02:26:21 10° NE visible
10 Dec 6.3 04:44:41 25° NNW 05:03:25 42° NNE 05:30:33 10° E visible
10 Dec 3.9 19:10:00 10° SW 19:16:25 40° SSE 19:25:45 10° E visible
10 Dec 4.2 21:52:15 10° WSW 22:00:21 57° NW 22:00:21 57° NW visible
11 Dec 6.9 01:13:09 14° NE 01:13:09 14° NE 01:16:38 10° NE visible
11 Dec 6.2 03:46:43 33° N 03:54:28 36° NNE 04:22:49 10° ENE visible
11 Dec 6.3 06:23:10 10° NW 06:56:01 62° NNE 07:19:12 10° ESE visible
11 Dec 3.6 20:50:50 10° WSW 20:58:38 77° NNW 21:02:31 47° NE visible
11 Dec 5.9 23:36:03 10° WNW 00:15:13 - NE 23:36:06 10° WNW visible
12 Dec 6.3 02:48:47 32° NNE 02:48:47 32° NNE 03:13:18 10° ENE visible
12 Dec 6.4 05:22:21 18° NW 05:48:24 52° NNE 06:14:40 10° E visible
12 Dec 3.4 19:49:43 10° SW 19:56:44 74° SSE 20:04:42 20° ENE visible
12 Dec 5.0 22:33:36 10° W 22:38:17 29° WNW 22:38:17 29° WNW visible
13 Dec 6.6 01:50:50 22° NE 01:50:50 22° NE 02:02:42 10° ENE visible
13 Dec 6.2 04:24:24 30° NNW 04:40:05 44° NNE 05:08:30 10° E visible
13 Dec 4.2 21:31:39 10° W 21:39:50 49° NNW 21:40:28 48° NNW visible
14 Dec 6.2 03:26:29 36° N 03:31:32 37° NNE 04:00:22 10° E visible
14 Dec 6.2 06:00:03 11° NW 06:32:19 67° NNE 06:57:26 10° ESE visible
14 Dec 3.6 20:30:05 10° WSW 20:37:23 65° NNW 20:42:40 34° NE visible
14 Dec 5.8 23:15:44 10° WNW 23:16:15 12° WNW 23:16:15 12° WNW visible
15 Dec 6.4 02:28:34 30° NNE 02:28:34 30° NNE 02:50:15 10° ENE visible
15 Dec 6.3 05:02:08 24° NW 05:24:41 55° NNE 05:52:40 10° E visible
15 Dec 3.2 19:28:47 10° WSW 19:35:34 86° SSE 19:44:52 13° ENE visible
15 Dec 4.9 22:13:15 10° WNW 22:18:26 29° NW 22:18:26 29° NW visible
16 Dec 6.7 01:30:39 18° NE 01:30:39 18° NE 01:39:02 10° ENE visible
16 Dec 6.1 04:04:13 35° NNW 04:16:38 46° NNE 04:46:11 10° E visible
16 Dec 4.3 21:11:10 10° W 21:18:39 40° NNW 21:20:38 37° N visible
17 Dec 6.1 03:06:20 38° NNE 03:08:34 38° NNE 03:37:40 10° E visible
17 Dec 6.2 05:39:54 17° NW 06:08:22 71° NNE 06:35:25 10° ESE visible
17 Dec 3.7 20:09:23 10° WSW 20:16:15 54° NNW 20:22:50 23° NE visible
17 Dec 5.7 22:55:34 10° WNW 22:56:25 12° NW 22:56:25 12° NW visible
